Simultaneous Nadir Overpasses (SNOs) Predictions

Prediction of SNOs between AURA and NPP Satellite Orbit:

Table of predicted SNOs for the next 14.0 days since TLE Epoch: 1/25/2013
Index Date (AURA) Time (AURA) Lat,Lon (AURA) SZA (AURA ) Date (NPP) Time (NPP) Lat,Lon (NPP) SZA (NPP ) Distance(km) Time Diff (sec)
1 01/27/2013 04:31:03 79.74, 10.82 110.72 01/27/2013 04:30:11 79.74, 10.91 110.74 1.84 52
2 01/27/2013 05:20:26 -79.88, 179.57 69.52 01/27/2013 05:20:52 -79.88, 179.49 69.52 1.76 26
3 01/29/2013 20:47:35 79.82, 127.33 109.91 01/29/2013 20:47:07 79.83, 127.49 109.90 3.08 28
4 01/29/2013 21:36:59 -79.93, -64.16 70.27 01/29/2013 21:37:49 -79.93, -64.18 70.31 0.41 50
5 02/01/2013 13:04:09 79.83,-116.79 109.18 02/01/2013 13:04:06 79.82,-116.79 109.19 0.14 3
6 02/01/2013 13:53:12 -80.61, 58.14 72.15 02/01/2013 13:54:26 -80.52, 58.43 72.24 12.26 74
7 02/04/2013 04:31:19 -79.74,-169.19 71.45 02/04/2013 04:30:23 -79.75,-169.05 71.43 2.78 56
8 02/04/2013 05:20:42 79.85, -0.71 108.38 02/04/2013 05:21:04 79.85, -0.78 108.38 1.37 22
9 02/06/2013 20:47:52 -79.73, -53.46 72.22 02/06/2013 20:47:22 -79.72, -53.59 72.17 2.74 30




NCC Satellite Simultaneous Nadir Overpasses (SNOs) Prediction Service
